Location: Newark
(46.7000°N, 60.6000°W)
Time: 09:24:52
(UTC+00:00)

Transit 2A Rocket - Pass Details

Date: 04 November 2020
Orbit: 588 x 915 km, 66.7° (Epoch: 23 November)

Event Time Altitude Azimuth Distance (km) Brightness Sun altitude
Rises 21:13:24 0° 320° (NW) 3,249 8.6 -5.9°
Reaches altitude 10° 21:16:02 10° 313° (NW) 2,261 7.9 -6.4°
Maximum altitude 21:20:43 37° 247° (WSW) 1,075 6.6 -7.2°
Drops below altitude 10° 21:25:00 10° 180° (S) 2,060 7.4 -7.9°
Sets 21:27:19 0° 172° (S) 2,923 8.1 -8.2°
